User: anonymous
Location: Ostrava
(49.8330°N, 18.2830°E)
Time: 05:50:15
(UTC+02:00)
Language:

Cosmos 2219 Rocket - Orbit

View from above orbital plane
View from above orbital plane
View from above satellite
View from above satellite

Ground track
Ground track

The orbit data is extracted from the following two-line orbital elements,

1 22220U 92076B   14106.24999337 -.00000263  00000-0 -10839-3 0  2866
2 22220 071.0016 336.4410 0014742 243.0998 258.1542 14.16307681106819
Epoch (UTC): 16 April 2014 05:59:59
Eccentricity: 0.0014742
inclination: 71.0016°
perigee height: 827 km
apogee height: 848 km
right ascension of ascending node: 336.4410°
argument of perigee: 243.0998°
revolutions per day: 14.16307681
mean anomaly at epoch: 258.1542°
orbit number at epoch: 10681

The dashed part of the orbit path shows where the satellite is in the earth's shadow,  

DLR